Regional Weather Roundup
Issued by NWS

Home | Current Version | Previous Version | Graphics & Text | Print | Product List | Glossary On
Versions: 1 2 3 4 5 6 7 8 9 10 11 12 13 14 15 16 17 18 19 20 21 22 23 24 25 26 27 28 29 30 31 32 33 34 35 36 37 38 39 40 41 42 43 44 45 46 47 48 49 50
000
ASUS43 KBIS 040301
RWRND

NORTH DAKOTA REGIONAL WEATHER ROUNDUP
NATIONAL WEATHER SERVICE BISMARCK ND
900 PM CST TUE MAR 03 2015

NOTE: "FAIR" INDICATES FEW OR NO CLOUDS BELOW 12,000 FEET WITH NO
SIGNIFICANT WEATHER AND/OR OBSTRUCTIONS TO VISIBILITY.


NDZ001>003-009>011-017-040400-
NORTHWEST NORTH DAKOTA

CITY           SKY/WX    TMP DP  RH WIND       PRES   REMARKS
WILLISTON      LGT SNOW   6   0  76 W7        30.01R WCI  -6
MINOT          PTCLDY     0 -10  63 W14       29.98F WCI -19
MINOT AFB      CLEAR     -2 -10  69 W13       29.98F WCI -21
$$

NDZ018>021-031>035-040>046-040400-
SOUTHWEST NORTH DAKOTA

CITY           SKY/WX    TMP DP  RH WIND       PRES   REMARKS
BISMARCK       CLEAR      5  -4  66 NW9       30.06R WCI  -9
DICKINSON      CLEAR      1  -7  68 W6        29.95S WCI -10
GARRISON         N/A     -7 -13  75 W3        30.01F
HETTINGER ARPT CLEAR      2  -7  66 NW8       30.00R WCI -12
$$

NDZ004>008-012>016-024-026-027-054-040400-
NORTHEAST NORTH DAKOTA

CITY           SKY/WX    TMP DP  RH WIND       PRES   REMARKS
GRAND FORKS    MOCLDY     1  -7  68 W9        30.01R WCI -14
GRND FRKS AFB  CLEAR      1  -8  66 NW13      30.00R WCI -17
DEVILS LAKE    CLEAR      0 -11  60 W16       29.97S WCI -21
$$

NDZ022-023-025-028>030-036>039-047>053-040400-
SOUTHEAST NORTH DAKOTA

CITY           SKY/WX    TMP DP  RH WIND       PRES   REMARKS
FARGO          CLEAR      4  -7  60 NW17      30.04R WCI -16
JAMESTOWN      CLEAR      2  -7  66 NW16G24   30.01R WCI -18
$$




USA.gov is the U.S. government's official web portal to all federal, state and local government web resources and services.